[[{"header":{"parameterUnit":"m.s-1","parameterCategory":1,"la1":30.2991,"la2":30.254,"lo1":-89.0895,"lo2":-89.0444,"dy":0.0017,"dx":0.0017,"nx":28,"ny":28,"refTime":"2025-07-29T03:00:00:Z","depth":0,"parameterNumber":2,"parameterNumberName":"U-component_of_WINDS"},"data":[0,0,0,0,0,0,0,0,0,0,0,0,0,0,0,0,0,0,0,0,0,0,0,0,0,0,0,0,0,0,0,0,0,0,0,0,0,0,0,0,0,0,0,0,0,0,0,0,0,0,0,0,0,0,0,0,0,0,1.3906,1.3905,0,1.3871,1.387,1.387,1.3796,1.3794,1.3793,1.3791,1.3754,1.3755,1.3755,0,0,0,0,0,0,0,0,0,0,0,0,0,1.391,1.3911,1.3906,1.3905,1.3905,1.3871,1.387,1.387,1.3796,1.3794,1.3793,1.3791,1.3754,1.3755,1.3755,0,0,0,0,0,0,0,0,0,0,0,0,0,1.3895,1.3911,1.3906,1.3864,1.386,1.3871,1.387,1.387,1.3797,1.3794,1.3792,1.379,1.3754,1.3755,1.3755,1.3803,0,0,1.3757,1.3757,0,0,0,0,0,0,0,0,1.3896,1.3895,1.3871,1.3867,1.3862,1.3835,1.3858,1.3847,1.3797,1.3821,1.3791,1.3789,1.3783,1.3781,1.3779,1.3802,1.38,1.3757,1.3757,1.3758,1.3758,0,0,0,0,0,0,0,1.3897,1.3896,1.3892,1.387,1.3865,1.3848,1.3843,1.3856,1.3815,1.3818,1.3813,1.381,1.378,1.3779,1.3778,1.3799,1.3757,1.3758,1.3758,1.3758,1.3864,1.3867,0,0,0,0,0,0,1.3904,1.3897,1.3893,1.3891,1.3874,1.3849,1.3844,1.3846,1.3814,1.3807,1.3812,1.3807,1.3779,1.3777,1.3776,1.3834,1.3758,1.3758,1.3759,1.3862,1.3865,1.3867,0,0,0,0,0,0,1.3905,1.3905,1.3894,1.3893,1.389,1.3852,1.3855,1.3847,1.3845,1.3809,1.3802,1.3818,1.3777,1.3775,1.3798,1.3831,1.3758,1.3759,1.3859,1.3863,1.3866,1.3947,0,0,0,0,0,0,1.3905,1.3905,1.3922,1.3894,1.389,1.3916,1.3856,1.3848,1.3847,1.3839,1.3813,1.3807,1.3775,1.3798,1.3799,1.3831,1.3759,1.3856,1.3861,1.3865,1.3941,1.3953,1.3963,0,0,0,0,0,1.3905,1.3945,1.3924,1.3923,1.3911,1.3918,1.3917,1.388,1.3849,1.3867,1.3845,1.3807,1.3827,1.3801,1.3801,1.3834,1.3853,1.3859,1.3865,1.3936,1.3951,1.3963,0,0,0,0,0,0,1.3977,1.3941,1.3916,1.3948,1.3937,1.3906,1.3927,1.3896,1.3893,1.3887,1.3841,1.3836,1.3866,1.3852,1.3823,1.3881,1.3835,1.3841,1.3889,1.3903,1.3913,1.3917,1.376,0,0,0,0,0,1.3997,1.4006,1.3973,1.4004,1.4001,1.3965,1.3967,1.394,1.3927,1.3922,1.3901,1.389,1.3894,1.3897,1.3898,1.3939,1.3934,1.3962,1.3973,1.3982,1.3988,1.4012,1.4025,1.3886,1.3886,1.3885,0,0,1.4037,1.4019,1.4027,1.4019,1.4007,1.4019,1.3962,1.3975,1.3983,1.3923,1.3945,1.393,1.3914,1.3947,1.3961,1.3936,1.4026,1.3989,1.3997,1.3998,1.4019,1.4033,1.4044,1.3889,1.3889,1.3888,0,0,1.4117,1.4103,1.4129,1.412,1.4104,1.4081,1.4088,1.4062,1.405,1.4071,1.4028,1.4037,1.4044,1.4036,1.4033,1.4115,1.4082,1.4117,1.4174,1.4198,1.4209,1.4219,1.4251,1.4263,1.4123,1.4123,1.4123,0,1.4169,1.4185,1.4146,1.4164,1.4163,1.4112,1.4139,1.4131,1.4117,1.4118,1.4091,1.4102,1.4087,1.412,1.4141,1.4139,1.4146,1.412,1.4211,1.422,1.4229,1.4259,1.4271,1.4127,1.4127,1.4126,1.4126,0,1.4251,1.4263,1.4286,1.4276,1.4277,1.4299,1.4266,1.4272,1.4246,1.4227,1.4251,1.4232,1.4231,1.4236,1.421,1.4266,1.4252,1.4219,1.4172,1.4247,1.4275,1.4286,1.4134,1.4132,1.4131,1.413,0,0,1.4373,1.4345,1.4354,1.435,1.4331,1.434,1.4361,1.4361,1.4369,1.4361,1.4379,1.4389,1.4359,1.4356,1.4329,1.435,1.442,1.4314,1.4313,1.4337,1.4485,1.4511,1.4525,1.4398,1.44,1.4401,1.4487,0,1.4451,1.4486,1.4454,1.4495,1.4508,1.4461,1.448,1.4471,1.4454,1.4462,1.4443,1.4452,1.441,1.4409,1.4427,1.4408,1.445,1.4401,1.4416,1.4417,1.4423,1.4539,1.4566,1.4648,1.4497,1.4499,1.45,0,1.4544,1.4544,1.4588,1.457,1.4573,1.4591,1.4591,1.4599,1.4589,1.4575,1.4574,1.4542,1.4564,1.4517,1.4547,1.4515,1.452,1.4512,1.4514,1.4515,1.4464,1.4545,1.4672,1.4686,1.4516,1.4515,1.4514,0,1.4633,1.4643,1.4671,1.4669,1.4648,1.4662,1.4654,1.4642,1.4645,1.4645,1.4648,1.4649,1.4651,1.4654,1.4624,1.4593,1.4659,1.461,1.465,1.4651,1.4667,1.4666,1.4798,1.4667,1.4667,1.4666,1.4666,0,1.4723,1.4752,1.4712,1.4729,1.4762,1.4725,1.4759,1.4745,1.4736,1.4751,1.471,1.4725,1.4685,1.4696,1.4673,1.4704,1.4704,1.4695,1.4689,1.4699,1.4701,1.4702,1.4697,1.467,1.4669,1.4668,1.4668,0,1.4827,1.4801,1.4829,1.4808,1.4804,1.4829,1.4811,1.4828,1.4809,1.4829,1.4832,1.4803,1.4815,1.4786,1.4792,1.4777,1.4822,1.4806,1.4826,1.4822,1.4865,1.4863,1.5004,1.5022,1.4877,1.4879,1.488,0,1.4887,1.4909,1.4892,1.49,1.4895,1.4907,1.4912,1.4878,1.4884,1.4877,1.4895,1.4904,1.4909,1.4931,1.4911,1.4917,1.4902,1.4951,1.4902,1.4914,1.4905,1.4905,1.4909,1.4961,1.4963,1.4965,1.4966,0,1.4998,1.4985,1.4993,1.4998,1.5005,1.5006,1.5005,1.5014,1.4978,1.4988,1.5001,1.5005,1.5014,1.5025,1.5027,1.5019,1.4988,1.4981,1.4992,1.5004,1.5016,1.5013,1.4856,1.4978,1.4977,1.4976,1.4975,1.4975,1.5083,1.5102,1.5094,1.5106,1.5102,1.5103,1.5118,1.5103,1.5113,1.5119,1.5098,1.5117,1.5109,1.511,1.5106,1.512,1.5098,1.5112,1.5116,1.512,1.5129,1.5013,1.512,1.512,1.5119,1.5119,1.5119,0,1.5194,1.5187,1.5198,1.52,1.521,1.518,1.5178,1.5189,1.5206,1.5202,1.5209,1.5226,1.5237,1.5219,1.5227,1.5243,1.5229,1.5246,1.5246,1.5245,1.5147,1.5138,1.5258,1.5258,1.5258,1.5258,1.5258,1.5258,1.5253,1.5285,1.5271,1.5302,1.5295,1.5313,1.5315,1.5317,1.5314,1.5335,1.5345,1.5333,1.5325,1.5333,1.5342,1.5337,1.5343,1.5366,1.5356,1.5265,1.5251,1.5238,1.5231,1.5367,1.5367,1.5453,1.5454,1.5455]},{"header":{"parameterUnit":"m.s-1","parameterCategory":1,"la1":30.2991,"la2":30.254,"lo1":-89.0895,"lo2":-89.0444,"dy":0.0017,"dx":0.0017,"nx":28,"ny":28,"refTime":"2025-07-29T03:00:00:Z","depth":0,"parameterNumber":3,"parameterNumberName":"V-component_of_WINDS"},"data":[0,0,0,0,0,0,0,0,0,0,0,0,0,0,0,0,0,0,0,0,0,0,0,0,0,0,0,0,0,0,0,0,0,0,0,0,0,0,0,0,0,0,0,0,0,0,0,0,0,0,0,0,0,0,0,0,0,0,-4.2453,-4.2452,0,-4.2328,-4.2326,-4.2325,-4.2274,-4.2274,-4.2274,-4.2275,-4.2137,-4.2133,-4.2129,0,0,0,0,0,0,0,0,0,0,0,0,0,-4.2642,-4.2639,-4.2453,-4.2451,-4.245,-4.2328,-4.2326,-4.2324,-4.2274,-4.2274,-4.2274,-4.2275,-4.2138,-4.2134,-4.2129,0,0,0,0,0,0,0,0,0,0,0,0,0,-4.2543,-4.2638,-4.2453,-4.241,-4.2405,-4.2328,-4.2326,-4.2324,-4.2273,-4.2274,-4.2274,-4.2275,-4.214,-4.2134,-4.2128,-4.2083,0,0,-4.211,-4.2108,0,0,0,0,0,0,0,0,-4.2548,-4.2536,-4.2418,-4.2413,-4.2407,-4.2317,-4.2343,-4.2243,-4.2273,-4.2323,-4.2275,-4.2275,-4.2196,-4.2186,-4.2161,-4.2076,-4.207,-4.211,-4.2106,-4.2104,-4.2102,0,0,0,0,0,0,0,-4.2555,-4.2541,-4.2403,-4.2416,-4.241,-4.2395,-4.2381,-4.2323,-4.2258,-4.2319,-4.2315,-4.2301,-4.2193,-4.2167,-4.2157,-4.2068,-4.211,-4.2105,-4.2101,-4.2099,-4.1943,-4.1943,0,0,0,0,0,0,-4.2571,-4.2547,-4.2407,-4.2399,-4.2481,-4.2391,-4.2376,-4.2345,-4.2259,-4.2246,-4.2301,-4.2299,-4.2176,-4.2164,-4.2152,-4.2095,-4.2104,-4.2098,-4.2095,-4.1944,-4.1943,-4.1943,0,0,0,0,0,0,-4.2575,-4.2559,-4.2412,-4.2472,-4.2452,-4.2388,-4.2353,-4.2343,-4.2316,-4.2245,-4.2233,-4.2286,-4.2176,-4.216,-4.2102,-4.2089,-4.2095,-4.209,-4.1945,-4.1944,-4.1943,-4.1979,0,0,0,0,0,0,-4.258,-4.256,-4.2543,-4.2472,-4.245,-4.2366,-4.2353,-4.234,-4.2307,-4.2304,-4.2228,-4.2216,-4.2175,-4.2111,-4.2096,-4.2081,-4.2085,-4.1945,-4.1944,-4.1943,-4.1978,-4.1979,-4.198,0,0,0,0,0,-4.2587,-4.2556,-4.2543,-4.2526,-4.2427,-4.2365,-4.2352,-4.2308,-4.2306,-4.2288,-4.2243,-4.2218,-4.2094,-4.2105,-4.2088,-4.2071,-4.1946,-4.1944,-4.1943,-4.1978,-4.1979,-4.198,0,0,0,0,0,0,-4.2622,-4.2545,-4.253,-4.2475,-4.2428,-4.2357,-4.2332,-4.231,-4.2259,-4.2258,-4.2204,-4.2187,-4.2133,-4.2096,-4.2111,-4.2024,-4.2018,-4.2013,-4.205,-4.2051,-4.2051,-4.2061,-4.2081,0,0,0,0,0,-4.2624,-4.2583,-4.2517,-4.2474,-4.2452,-4.2397,-4.2367,-4.2339,-4.2286,-4.2264,-4.2215,-4.2163,-4.2112,-4.2079,-4.2028,-4.1974,-4.1957,-4.1954,-4.1955,-4.1956,-4.1952,-4.1922,-4.1921,-4.1938,-4.1938,-4.1938,0,0,-4.2626,-4.2579,-4.2555,-4.248,-4.244,-4.2397,-4.2379,-4.2333,-4.23,-4.2256,-4.2199,-4.2162,-4.21,-4.2044,-4.2017,-4.2011,-4.1944,-4.1954,-4.1955,-4.195,-4.1921,-4.1919,-4.1918,-4.1937,-4.1938,-4.1938,0,0,-4.2608,-4.2568,-4.253,-4.2492,-4.2433,-4.2398,-4.2389,-4.2322,-4.2297,-4.224,-4.2207,-4.2166,-4.2079,-4.2038,-4.2005,-4.1978,-4.1953,-4.1962,-4.1966,-4.1938,-4.1936,-4.1935,-4.1926,-4.1923,-4.1959,-4.1959,-4.1959,0,-4.2617,-4.2553,-4.2512,-4.247,-4.2438,-4.2402,-4.2362,-4.2326,-4.2252,-4.2231,-4.2227,-4.212,-4.2075,-4.2011,-4.2005,-4.1979,-4.1967,-4.1969,-4.194,-4.1938,-4.1936,-4.1927,-4.1924,-4.196,-4.196,-4.196,-4.196,0,-4.2567,-4.2524,-4.2499,-4.2435,-4.24,-4.2359,-4.2312,-4.2281,-4.2257,-4.2222,-4.2165,-4.2112,-4.2051,-4.2033,-4.2007,-4.1965,-4.1964,-4.1951,-4.1943,-4.1937,-4.1928,-4.1924,-4.1963,-4.1962,-4.1962,-4.1961,0,0,-4.2563,-4.2481,-4.2473,-4.2445,-4.238,-4.2344,-4.2302,-4.2247,-4.2223,-4.2174,-4.2137,-4.2068,-4.2057,-4.202,-4.1989,-4.1965,-4.1948,-4.1954,-4.1952,-4.1956,-4.1901,-4.1912,-4.1908,-4.1933,-4.1932,-4.1931,-4.1907,0,-4.2537,-4.2463,-4.2428,-4.2369,-4.2329,-4.2297,-4.226,-4.2216,-4.2183,-4.2143,-4.2105,-4.2057,-4.2045,-4.2024,-4.1998,-4.1956,-4.1937,-4.1957,-4.1897,-4.1895,-4.1913,-4.1903,-4.1912,-4.1891,-4.1903,-4.1902,-4.1901,0,-4.2494,-4.2452,-4.2391,-4.2335,-4.2317,-4.2285,-4.2233,-4.2196,-4.2145,-4.2123,-4.2085,-4.2056,-4.2011,-4.2009,-4.1945,-4.196,-4.1933,-4.1909,-4.1907,-4.1899,-4.1897,-4.1894,-4.1883,-4.1881,-4.1895,-4.1895,-4.1896,0,-4.2499,-4.2426,-4.2381,-4.2357,-4.229,-4.227,-4.224,-4.2191,-4.2161,-4.2115,-4.2096,-4.2044,-4.2015,-4.1975,-4.1933,-4.1936,-4.1874,-4.1868,-4.1854,-4.1855,-4.1841,-4.1842,-4.1825,-4.1825,-4.1825,-4.1825,-4.1825,0,-4.2473,-4.2437,-4.2383,-4.2355,-4.2314,-4.2274,-4.2234,-4.2202,-4.2159,-4.2124,-4.2091,-4.2058,-4.2005,-4.1965,-4.1932,-4.1885,-4.1872,-4.1852,-4.1844,-4.1855,-4.1858,-4.1836,-4.1836,-4.1824,-4.1824,-4.1824,-4.1824,0,-4.247,-4.2432,-4.2381,-4.2325,-4.231,-4.2282,-4.2233,-4.2204,-4.2172,-4.2127,-4.2114,-4.2062,-4.2014,-4.197,-4.1904,-4.1882,-4.1835,-4.1823,-4.1853,-4.1848,-4.1837,-4.1839,-4.1805,-4.1799,-4.1803,-4.1803,-4.1803,0,-4.2455,-4.2427,-4.237,-4.2346,-4.2319,-4.228,-4.2251,-4.2211,-4.2182,-4.2126,-4.2104,-4.2055,-4.2013,-4.1938,-4.1893,-4.1843,-4.1831,-4.1823,-4.1823,-4.1836,-4.1831,-4.1834,-4.1831,-4.1823,-4.1823,-4.1823,-4.1823,0,-4.2433,-4.2418,-4.2379,-4.2336,-4.2304,-4.2266,-4.2227,-4.2209,-4.2162,-4.2131,-4.2084,-4.2052,-4.1989,-4.194,-4.1887,-4.1854,-4.1831,-4.1825,-4.1819,-4.1829,-4.1848,-4.1839,-4.1855,-4.1825,-4.1825,-4.1824,-4.1824,-4.1824,-4.2424,-4.2399,-4.2357,-4.2316,-4.2284,-4.225,-4.2222,-4.2188,-4.2149,-4.2097,-4.2076,-4.2028,-4.1981,-4.1908,-4.1877,-4.1838,-4.1833,-4.1824,-4.1822,-4.182,-4.1823,-4.1856,-4.1828,-4.1828,-4.1828,-4.1828,-4.1828,0,-4.2401,-4.2374,-4.2337,-4.2287,-4.2255,-4.2241,-4.2199,-4.2172,-4.2132,-4.2092,-4.2054,-4.2001,-4.1956,-4.1909,-4.1861,-4.1839,-4.1827,-4.1827,-4.1828,-4.1821,-4.183,-4.184,-4.1838,-4.1838,-4.1838,-4.1838,-4.1838,-4.1838,-4.2385,-4.2344,-4.2324,-4.2268,-4.2239,-4.2196,-4.2173,-4.2142,-4.211,-4.2054,-4.2018,-4.199,-4.1947,-4.1896,-4.1854,-4.1841,-4.1824,-4.1828,-4.1812,-4.1821,-4.182,-4.182,-4.1829,-4.1825,-4.1825,-4.1807,-4.1807,-4.1807]}]]